Regional Weather Roundup
Issued by NWS Jackson, KY

Home | Current Version | Previous Version | Text Only | Print | Product List | Glossary On
Versions: 1 2 3 4 5 6 7 8 9 10 11 12 13 14 15 16 17 18 19 20 21 22 23 24 25 26 27 28
000
ASUS43 KJKL 191210
RWRJKL

EAST KENTUCKY HOURLY WEATHER ROUNDUP
NATIONAL WEATHER SERVICE JACKSON KY
800 AM EDT SAT AUG 19 2017

NOTE: "FAIR" INDICATES FEW OR NO CLOUDS BELOW 12,000 FEET WITH
NO SIGNIFICANT WEATHER AND/OR OBSTRUCTIONS TO VISIBILITY.

* THESE REPORTS ARE NOT UNDER NWS QUALITY CONTROL AND MAY NOT
  REPORT WEATHER SUCH AS PRECIPITATION AND FOG.

KYZ079-080-083-085-087-088-110-112-115-119-120-191300
...EASTERN KENTUCKY...

CITY           SKY/WX    TMP DP  RH WIND       PRES   REMARKS
JACKSON        SUNNY     65  63  93 SW3       30.05R
6HR MIN TEMP:  64; 6HR MAX TEMP:  68;

LONDON         SUNNY     65  62  90 CALM      30.04R
6HR MIN TEMP:  63; 6HR MAX TEMP:  66;

SOMERSET*      CLOUDY    63  63 100 CALM      30.04S
MONTICELLO*    CLOUDY    65  64  97 W10       30.05R
6HR MIN TEMP:  62; 6HR MAX TEMP:  65; 6HR PCP:  0.01;

WILLIAMSBURG*  CLOUDY    63  63 100 CALM      30.04R VSB 1/2
MIDDLESBORO*   FOG       63  63 100 CALM      30.07R VSB 3/4
6HR MIN TEMP:  63; 6HR MAX TEMP:  64;

HARLAN APT*    CLOUDY    63  61  94 CALM      30.06S VSB 1/4
PIKE CO APT*   FOG       64  64 100 S3        30.04R VSB<1/4
BIG SANDY APT* SUNNY     66  66  99 S3        30.03R
6HR MIN TEMP:  64; 6HR MAX TEMP:  70;

MOREHEAD APT*  CLOUDY    68  64  88 CALM      30.03R
$$

KYZ035-036-041-042-044-050-067-078-099-191300
...CENTRAL KENTUCKY...

CITY           SKY/WX    TMP DP  RH WIND       PRES   REMARKS
MT STERLING*   CLOUDY    68  64  88 W5        30.03S
FLEMING/MASON* CLOUDY    67  65  92 S7        30.01S
DANVILLE*      CLOUDY    64  63  94 S7        30.02S
LEXINGTON      LGT RAIN  68  64  87 SE6       30.00S
6HR MIN TEMP:  65; 6HR MAX TEMP:  70; 6HR PCP: TRACE;

FRANKFORT      CLOUDY    68  64  87 S5        29.98S
6HR MIN TEMP:  67; 6HR MAX TEMP:  70;

LOUISVILLE     CLOUDY    72  67  84 SE5       29.97R
6HR MIN TEMP:  71; 6HR MAX TEMP:  76; 6HR PCP: TRACE;

LEBANON*         N/A     68  64  88 S5        30.00R
GLASGOW*       CLOUDY    68  68 100 CALM      30.00S
BOWLING GREEN  CLOUDY    71  68  90 SE3       29.99R
6HR MIN TEMP:  69; 6HR MAX TEMP:  73;

$$

KYZ091>093-OHZ055-061-077-WVZ005-015-034-035-042-191300
...SOUTHERN OHIO/WEST VIRGINIA...

CITY           SKY/WX    TMP DP  RH WIND       PRES   REMARKS
COVINGTON      CLOUDY    69  67  93 W5        29.97R
COLUMBUS       PTSUNNY   68  66  93 S7        29.96R
DAYTON         CLOUDY    70  63  78 W10       29.95S
WILMINGTON     CLOUDY    66  66 100 S5        29.95F
HUNTINGTON     MOSUNNY   67  64  90 SW5       29.99R
CHARLESTON     PTSUNNY   68  67  96 S3        30.00R
PINEVILLE*     CLOUDY    67  66  96 MISG      30.10R
BECKLEY        SUNNY     65  63  93 SW3       30.06S
BLUEFIELD      SUNNY     63  61  93 W6        30.10R
LOGAN CO APT*  FOG       66  66 100 CALM      30.04R VSB<1/4
$$

VAZ002-007-008-TNZ017-027-036-066-071-191300
...SOUTHWEST VIRGINIA/EAST TENNESSEE...

CITY           SKY/WX    TMP DP  RH WIND       PRES   REMARKS
WISE*          SUNNY     63  63 100 CALM      30.11R
JONESVILLE*    FOG       63  63 100 CALM      30.08R VSB<1/4
ABINGDON*      MOSUNNY   64  64 100 CALM      30.08R FOG
BRISTOL        FOG       66  66 100 CALM      30.06R VSB 3/4
MORRISTOWN*    SUNNY     66  66 100 CALM      30.04R
SEVIERVILLE*   SUNNY     64  64 100 CALM      30.03S
KNOXVILLE      MOSUNNY   68  65  90 NW5       30.03R
LAFOLLETTE*    MOSUNNY   64  64 100 CALM      30.07R FOG
OAK RIDGE      SUNNY     67  64  90 CALM      30.05R
CROSSVILLE     MOSUNNY   62  61  96 CALM      30.08R
NASHVILLE      PTCLDY    68  66  93 S5        30.01R
$$

...KEY TO REMARKS...
VSB - VISIBILITY IN MILES
WCI - WIND CHILL INDEX
HX  - HEAT INDEX

$$




USA.gov is the U.S. government's official web portal to all federal, state and local government web resources and services.